Fredericksburg, VA

5:33 PM EDT on September 16, 2019 (GMT -0400)
Shannon

Weather History for KEZF - July, 2019

Change the Weather History Date:

Sunday, July 21, 2019

  Actual Average (KNYG) Record (KNYG)
Temperature  
Mean Temperature 88 °F -  
Max Temperature 100 °F 82 °F 100 °F (2019)
Min Temperature 76 °F 66 °F 57 °F (2001)
Cooling Degree Days 23    
Growing Degree Days 38 (Base 50)    
Moisture  
Dew Point 74 °F    
Average Humidity 68    
Maximum Humidity 96    
Minimum Humidity 39    
Precipitation  
Precipitation 0.00 in - - ()
Sea Level Pressure  
Sea Level Pressure 29.88 in    
Wind  
Wind Speed 2 mph (West)    
Max Wind Speed 18 mph    
Max Gust Speed 25 mph    
Visibility 10 miles    
Events      
Averages and records for this station are not official NWS values.
T = Trace of Precipitation, MM = Missing Value Source: NWS Daily Summary

Daily Weather History Graph

Daily Weather History Graph

Search for Another Location

Airport or City:

Astronomy

Jul. 21, 2019 Rise Set
Actual Time 6:02 AM EDT 8:29 PM EDT
Civil Twilight 5:32 AM EDT 8:59 PM EDT
Nautical Twilight 4:55 AM EDT 9:36 PM EDT
Astronomical Twilight 4:13 AM EDT 10:17 PM EDT
Moon 11:26 PM EDT (7/21) 10:18 AM EDT (7/21)
Length of Visible Light 15h 26m
Length of Day
14h 26m
Waning Gibbous, 80% of the Moon is Illuminated
Jul 21
Waning Gibbous
Jul 24
Last Quarter
Jul 31
New
Aug 7
First Quarter
Aug 15
Full

Hourly Weather History & Observations

Time (EDT) Temp. Heat Index Dew Point Humidity Pressure Visibility Wind Dir Wind Speed Gust Speed Precip Events Conditions
12:15 AM 83.3 °F 92.8 °F 77.4 °F 82% 29.88 in 10.0 mi Calm Calm - N/A   Scattered Clouds
12:35 AM 83.1 °F 92.9 °F 77.9 °F 84% 29.88 in 10.0 mi Calm Calm - N/A   Clear
12:55 AM 81.5 °F 89.0 °F 77.0 °F 86% 29.88 in 10.0 mi Calm Calm - N/A   Clear
1:15 AM 81.9 °F 89.5 °F 76.5 °F 84% 29.89 in 10.0 mi Calm Calm - N/A   Clear
1:35 AM 81.5 °F 88.5 °F 76.1 °F 84% 29.89 in 10.0 mi Calm Calm - N/A   Clear
1:55 AM 80.1 °F 85.2 °F 75.4 °F 86% 29.89 in 10.0 mi Calm Calm - N/A   Clear
2:15 AM 80.2 °F 85.7 °F 75.7 °F 86% 29.89 in 10.0 mi Calm Calm - N/A   Clear
2:35 AM 79.0 °F - 75.2 °F 88% 29.89 in 10.0 mi Calm Calm - N/A   Clear
2:55 AM 79.0 °F - 75.2 °F 88% 29.88 in 10.0 mi Calm Calm - N/A   Clear
3:15 AM 78.4 °F - 75.4 °F 90% 29.88 in 10.0 mi Calm Calm - N/A   Clear
3:35 AM 78.1 °F - 75.2 °F 91% 29.88 in 10.0 mi Calm Calm - N/A   Clear
3:55 AM 77.5 °F - 75.2 °F 92% 29.87 in 10.0 mi Calm Calm - N/A   Clear
4:15 AM 76.6 °F - 75.2 °F 95% 29.86 in 10.0 mi Calm Calm - N/A   Clear
4:35 AM 77.0 °F - 75.4 °F 95% 29.86 in 10.0 mi Calm Calm - N/A   Clear
4:55 AM 77.9 °F - 75.6 °F 92% 29.87 in 10.0 mi Calm Calm - N/A   Clear
5:15 AM 77.0 °F - 75.2 °F 94% 29.87 in 10.0 mi Calm Calm - N/A   Clear
5:35 AM 76.3 °F - 75.2 °F 96% 29.87 in 10.0 mi Calm Calm - N/A   Clear
5:55 AM 77.4 °F - 75.6 °F 94% 29.87 in 10.0 mi Calm Calm - N/A   Clear
6:15 AM 78.3 °F - 76.1 °F 93% 29.88 in 10.0 mi Calm Calm - N/A   Clear
6:35 AM 78.3 °F - 75.9 °F 92% 29.89 in 10.0 mi Calm Calm - N/A   Clear
6:55 AM 79.0 °F - 76.3 °F 91% 29.89 in 10.0 mi Calm Calm - N/A   Clear
7:15 AM 79.9 °F - 76.3 °F 89% 29.90 in 10.0 mi Calm Calm - N/A   Clear
7:35 AM 80.8 °F 87.4 °F 77.0 °F 88% 29.90 in 10.0 mi Calm Calm - N/A   Clear
7:55 AM 82.6 °F 91.1 °F 77.0 °F 83% 29.90 in 10.0 mi Calm Calm - N/A   Clear
8:15 AM 84.9 °F 94.9 °F 76.5 °F 76% 29.91 in 10.0 mi Calm Calm - N/A   Clear
8:35 AM 86.4 °F 96.4 °F 75.9 °F 71% 29.91 in 10.0 mi WNW 3.5 mph - N/A   Clear
8:55 AM 87.3 °F 97.2 °F 75.6 °F 68% 29.91 in 10.0 mi NW 4.6 mph - N/A   Clear
9:10 AM 88.3 °F 99.5 °F 75.9 °F 67% 29.92 in 10.0 mi NW 5.8 mph - N/A   Clear
9:35 AM 89.2 °F 99.5 °F 75.2 °F 63% 29.91 in 10.0 mi WNW 6.9 mph - N/A   Clear
9:55 AM 90.3 °F 102.3 °F 76.1 °F 63% 29.91 in 10.0 mi NNW 4.6 mph - N/A   Clear
10:15 AM 91.8 °F 102.8 °F 75.2 °F 58% 29.91 in 10.0 mi NNW 4.6 mph - N/A   Clear
10:35 AM 93.0 °F 103.9 °F 74.5 °F 55% 29.91 in 10.0 mi NNE 5.8 mph - N/A   Clear
10:55 AM 94.5 °F 103.3 °F 72.7 °F 49% 29.91 in 10.0 mi NNW 3.5 mph - N/A   Clear
11:15 AM 95.4 °F 105.4 °F 73.4 °F 49% 29.91 in 10.0 mi North 3.5 mph - N/A   Clear
11:35 AM 96.1 °F 104.9 °F 72.5 °F 46% 29.91 in 10.0 mi NNW 5.8 mph - N/A   Scattered Clouds
11:55 AM 95.5 °F 105.8 °F 73.6 °F 49% 29.91 in 10.0 mi NNE 5.8 mph - N/A   Scattered Clouds
12:15 PM 95.7 °F 106.2 °F 73.6 °F 49% 29.91 in 10.0 mi NW 4.6 mph - N/A   Mostly Cloudy
12:35 PM 96.4 °F 107.2 °F 73.8 °F 48% 29.90 in 10.0 mi NW 5.8 mph - N/A   Scattered Clouds
12:55 PM 96.3 °F 105.3 °F 72.3 °F 46% 29.89 in 10.0 mi NW 3.5 mph - N/A   Scattered Clouds
1:15 PM 97.9 °F 106.1 °F 71.2 °F 42% 29.89 in 10.0 mi Calm Calm - N/A   Clear
1:35 PM 98.1 °F 108.0 °F 73.0 °F 44% 29.89 in 10.0 mi SW 4.6 mph - N/A   Clear
2:15 PM 98.6 °F 107.7 °F 71.8 °F 42% 29.88 in 10.0 mi Calm Calm - N/A   Clear
2:35 PM 99.1 °F 108.9 °F 72.5 °F 42% 29.87 in 10.0 mi Calm Calm - N/A   Clear
2:55 PM 100.9 °F 111.4 °F 72.3 °F 40% 29.86 in 10.0 mi Calm Calm - N/A   Scattered Clouds
3:15 PM 100.6 °F 109.7 °F 71.8 °F 39% 29.85 in 10.0 mi Calm Calm - N/A   Scattered Clouds
3:35 PM 98.8 °F 108.9 °F 72.7 °F 43% 29.85 in 10.0 mi SSW 3.5 mph - N/A   Scattered Clouds
3:50 PM 98.8 °F 107.3 °F 71.6 °F 41% 29.86 in 10.0 mi South 5.8 mph - N/A   Scattered Clouds
4:15 PM 99.1 °F 108.1 °F 71.8 °F 41% 29.86 in 10.0 mi ESE 3.5 mph - N/A   Mostly Cloudy
4:35 PM 100.2 °F 110.6 °F 72.7 °F 41% 29.85 in 10.0 mi SE 4.6 mph - N/A   Overcast
4:55 PM 100.6 °F 112.3 °F 73.9 °F 42% 29.84 in 10.0 mi SW 6.9 mph - N/A   Scattered Clouds
5:15 PM 100.6 °F 112.3 °F 73.8 °F 42% 29.84 in 10.0 mi SW 5.8 mph - N/A   Scattered Clouds
5:35 PM 99.1 °F 109.7 °F 72.9 °F 43% 29.85 in 10.0 mi West 6.9 mph - N/A   Scattered Clouds
5:55 PM 97.9 °F 107.6 °F 72.7 °F 44% 29.86 in 10.0 mi WSW 18.4 mph 25.3 mph N/A   Scattered Clouds
6:15 PM 93.2 °F 102.4 °F 73.4 °F 52% 29.86 in 10.0 mi WSW 12.7 mph 19.6 mph N/A   Scattered Clouds
6:36 PM 93.2 °F 102.4 °F 73.4 °F 52% 29.85 in 10.0 mi WSW 9.2 mph - N/A   Clear
6:56 PM 89.6 °F 98.2 °F 73.4 °F 59% 29.87 in 10.0 mi West 9.2 mph - N/A   Clear
7:15 PM 89.6 °F 98.2 °F 73.4 °F 59% 29.88 in 10.0 mi West 8.1 mph 18.4 mph N/A   Clear
7:35 PM 87.8 °F 93.8 °F 71.6 °F 58% 29.88 in 10.0 mi WSW 6.9 mph - N/A   Clear
7:55 PM 87.8 °F 93.8 °F 71.6 °F 58% 29.88 in 10.0 mi West 8.1 mph - N/A   Clear
8:15 PM 86.0 °F 91.8 °F 71.6 °F 62% 29.89 in 10.0 mi West 5.8 mph - N/A   Clear
8:35 PM 84.2 °F 89.6 °F 71.6 °F 66% 29.88 in 10.0 mi SW 5.8 mph - N/A   Clear
8:55 PM 84.2 °F 89.6 °F 71.6 °F 66% 29.87 in 10.0 mi WSW 4.6 mph - N/A   Clear
9:35 PM 81.9 °F 87.0 °F 72.9 °F 74% 29.89 in 10.0 mi SSW 6.9 mph - N/A   Clear
9:55 PM 82.4 °F 87.4 °F 72.3 °F 71% 29.89 in 10.0 mi Calm Calm - N/A   Clear
10:15 PM 81.3 °F 86.3 °F 73.2 °F 76% 29.88 in 10.0 mi South 3.5 mph - N/A   Clear
10:35 PM 80.6 °F 85.0 °F 72.9 °F 77% 29.88 in 10.0 mi Calm Calm - N/A   Clear
10:55 PM 79.2 °F - 73.0 °F 81% 29.89 in 10.0 mi Calm Calm - N/A   Clear
11:15 PM 79.5 °F - 73.4 °F 81% 29.89 in 10.0 mi Calm Calm - N/A   Clear
11:35 PM 77.5 °F - 73.0 °F 86% 29.89 in 10.0 mi SW 4.6 mph - N/A   Clear
11:55 PM 77.9 °F - 72.9 °F 84% 29.89 in 10.0 mi SSE 3.5 mph - N/A   Clear